[[{"header":{"parameterUnit":"m.s-1","parameterCategory":2,"la1":30.2991,"la2":30.254,"lo1":-89.0895,"lo2":-89.0444,"dy":0.0017,"dx":0.0017,"nx":28,"ny":28,"refTime":"2024-12-14T03:00:00:Z","depth":"0","parameterNumber":2,"parameterNumberName":"U-component_of_CURRENTS"},"data":[0,0,0,0,0,0,0,0,0,0,0,0,0,0,0,0,0,0,0,0,0,0,0,0,0,0,0,0,0,0,0,0,0,0,0,0,0,0,0,0,0,0,0,0,0,0,0,0,0,0,0,0,0,0,0,0,0,0,-0.1627,-0.1628,0,-0.167,-0.167,-0.167,-0.1658,-0.1658,-0.1657,-0.1657,-0.1636,-0.1636,-0.1636,0,0,0,0,0,0,0,0,0,0,0,0,0,-0.1523,-0.1524,-0.1627,-0.1628,-0.1629,-0.167,-0.167,-0.167,-0.1659,-0.1658,-0.1657,-0.1657,-0.1636,-0.1636,-0.1636,0,0,0,0,0,0,0,0,0,0,0,0,0,-0.1563,-0.1525,-0.1627,-0.1631,-0.1632,-0.167,-0.167,-0.167,-0.1659,-0.1658,-0.1657,-0.1656,-0.1636,-0.1636,-0.1635,-0.165,0,0,-0.1635,-0.1635,0,0,0,0,0,0,0,0,-0.1561,-0.1567,-0.1629,-0.1631,-0.1632,-0.1661,-0.1626,-0.1662,-0.1659,-0.1645,-0.1657,-0.1656,-0.1641,-0.1641,-0.1646,-0.1649,-0.1649,-0.1635,-0.1635,-0.1635,-0.1635,0,0,0,0,0,0,0,-0.1558,-0.1565,-0.164,-0.163,-0.1632,-0.1626,-0.1631,-0.1632,-0.1643,-0.1646,-0.1646,-0.1657,-0.1641,-0.1646,-0.1645,-0.1648,-0.1635,-0.1635,-0.1635,-0.1635,-0.165,-0.165,0,0,0,0,0,0,-0.1563,-0.1563,-0.1639,-0.1642,-0.1598,-0.1629,-0.1634,-0.165,-0.1644,-0.1644,-0.1658,-0.1656,-0.1647,-0.1646,-0.1645,-0.1672,-0.1635,-0.1635,-0.1635,-0.1649,-0.165,-0.165,0,0,0,0,0,0,-0.156,-0.1569,-0.1637,-0.1606,-0.1614,-0.1632,-0.1649,-0.1651,-0.1657,-0.1655,-0.1652,-0.1663,-0.1646,-0.1645,-0.1652,-0.1671,-0.1635,-0.1635,-0.1649,-0.1649,-0.165,-0.172,0,0,0,0,0,0,-0.1557,-0.1568,-0.1576,-0.1606,-0.1616,-0.1665,-0.1651,-0.1653,-0.1667,-0.1666,-0.1658,-0.1656,-0.1645,-0.1653,-0.1652,-0.167,-0.1635,-0.1648,-0.1649,-0.165,-0.1718,-0.1723,-0.1729,0,0,0,0,0,-0.1553,-0.1573,-0.1577,-0.1586,-0.1629,-0.1666,-0.1671,-0.1677,-0.1668,-0.1678,-0.1673,-0.1656,-0.1657,-0.1654,-0.1653,-0.1671,-0.1648,-0.1649,-0.165,-0.1715,-0.1722,-0.1728,0,0,0,0,0,0,-0.153,-0.1575,-0.1579,-0.161,-0.1638,-0.1666,-0.1677,-0.1682,-0.1687,-0.1681,-0.1669,-0.1667,-0.1676,-0.1663,-0.1659,-0.1675,-0.1647,-0.1648,-0.1697,-0.1703,-0.1709,-0.1714,-0.1635,0,0,0,0,0,-0.1532,-0.1558,-0.1595,-0.162,-0.1633,-0.1654,-0.1668,-0.1677,-0.169,-0.1691,-0.1687,-0.168,-0.1681,-0.1684,-0.1677,-0.1695,-0.1697,-0.1702,-0.1707,-0.1712,-0.1715,-0.1742,-0.1751,-0.1654,-0.1654,-0.1654,0,0,-0.1528,-0.1558,-0.1571,-0.1617,-0.1635,-0.1668,-0.166,-0.1688,-0.1708,-0.1688,-0.1704,-0.1698,-0.1687,-0.1704,-0.1707,-0.1697,-0.1743,-0.1714,-0.1718,-0.1718,-0.1744,-0.1754,-0.1763,-0.1654,-0.1654,-0.1654,0,0,-0.1549,-0.1563,-0.1596,-0.1622,-0.1662,-0.1677,-0.1687,-0.1717,-0.1719,-0.1739,-0.1728,-0.1735,-0.1734,-0.1739,-0.1739,-0.177,-0.1766,-0.1766,-0.1808,-0.1835,-0.1844,-0.1852,-0.1879,-0.1889,-0.1775,-0.1775,-0.1775,0,-0.1541,-0.159,-0.1609,-0.1651,-0.1672,-0.1684,-0.1719,-0.1731,-0.1758,-0.1767,-0.1747,-0.1769,-0.175,-0.179,-0.1794,-0.1784,-0.1802,-0.1788,-0.1845,-0.1852,-0.1859,-0.1885,-0.1895,-0.1779,-0.1778,-0.1778,-0.1777,0,-0.1592,-0.1628,-0.1648,-0.1702,-0.1726,-0.1757,-0.1781,-0.1798,-0.1795,-0.1809,-0.1835,-0.1826,-0.1839,-0.1838,-0.1822,-0.1868,-0.1867,-0.1847,-0.1834,-0.1874,-0.1898,-0.1907,-0.1784,-0.1782,-0.1781,-0.178,0,0,-0.1582,-0.1666,-0.1673,-0.1704,-0.1752,-0.178,-0.1812,-0.1849,-0.1886,-0.1887,-0.1937,-0.1922,-0.1919,-0.1918,-0.1913,-0.1937,-0.199,-0.1916,-0.1916,-0.1954,-0.2064,-0.2081,-0.2091,-0.1992,-0.1994,-0.1995,-0.2068,0,-0.1612,-0.1692,-0.1726,-0.1788,-0.1823,-0.1844,-0.1884,-0.1916,-0.1934,-0.1985,-0.1978,-0.2009,-0.1951,-0.197,-0.1984,-0.1992,-0.2015,-0.1972,-0.201,-0.2011,-0.203,-0.2103,-0.2055,-0.2118,-0.2076,-0.2078,-0.2079,0,-0.1647,-0.1697,-0.1759,-0.1837,-0.1856,-0.1889,-0.1952,-0.1989,-0.2052,-0.2072,-0.21,-0.2104,-0.2131,-0.2079,-0.2107,-0.2088,-0.2073,-0.2076,-0.2078,-0.2074,-0.2044,-0.2067,-0.2135,-0.2134,-0.2092,-0.2091,-0.209,0,-0.1625,-0.1718,-0.1763,-0.1786,-0.1875,-0.1898,-0.1938,-0.2004,-0.2047,-0.2123,-0.2169,-0.2203,-0.2217,-0.2219,-0.2184,-0.2158,-0.2231,-0.2191,-0.2196,-0.2197,-0.2151,-0.2146,-0.2228,-0.2214,-0.2213,-0.2213,-0.2213,0,-0.1635,-0.1675,-0.1754,-0.1776,-0.1839,-0.1894,-0.1963,-0.2016,-0.2105,-0.2168,-0.2199,-0.2256,-0.225,-0.2279,-0.2247,-0.2258,-0.227,-0.2224,-0.2226,-0.2175,-0.2171,-0.2161,-0.2154,-0.2216,-0.2215,-0.2215,-0.2214,0,-0.1601,-0.1656,-0.1713,-0.18,-0.1826,-0.1862,-0.1962,-0.2017,-0.2104,-0.2193,-0.2215,-0.2298,-0.2339,-0.2346,-0.2364,-0.2333,-0.2329,-0.2339,-0.2283,-0.2277,-0.2281,-0.2279,-0.2325,-0.2273,-0.2376,-0.2377,-0.2378,0,-0.1595,-0.1617,-0.1705,-0.1729,-0.176,-0.1826,-0.1875,-0.1989,-0.2047,-0.2206,-0.2243,-0.2332,-0.2384,-0.2449,-0.2434,-0.2439,-0.2368,-0.238,-0.2311,-0.2305,-0.2303,-0.2262,-0.2211,-0.228,-0.228,-0.228,-0.228,0,-0.1564,-0.1588,-0.162,-0.1673,-0.1717,-0.1789,-0.1862,-0.1924,-0.2059,-0.2154,-0.2274,-0.2343,-0.2434,-0.2453,-0.2475,-0.244,-0.2351,-0.238,-0.2386,-0.226,-0.2208,-0.215,-0.221,-0.2279,-0.228,-0.228,-0.228,-0.228,-0.1517,-0.1525,-0.1556,-0.1599,-0.1657,-0.1722,-0.1744,-0.1858,-0.1965,-0.2103,-0.2229,-0.2347,-0.2428,-0.2473,-0.2457,-0.2419,-0.2373,-0.2338,-0.2344,-0.231,-0.2239,-0.2312,-0.2375,-0.2376,-0.2376,-0.2376,-0.2377,0,-0.1447,-0.1457,-0.1485,-0.1528,-0.155,-0.1615,-0.1707,-0.1728,-0.1821,-0.2015,-0.2132,-0.2347,-0.2391,-0.2448,-0.2466,-0.2404,-0.2302,-0.2331,-0.2248,-0.22,-0.2281,-0.2255,-0.2281,-0.2281,-0.2281,-0.2281,-0.2281,-0.2281,-0.1402,-0.139,-0.1403,-0.1402,-0.1428,-0.1432,-0.146,-0.1528,-0.164,-0.1837,-0.203,-0.2232,-0.2313,-0.255,-0.2506,-0.2404,-0.2314,-0.2254,-0.2239,-0.2296,-0.2295,-0.2295,-0.227,-0.2298,-0.2298,-0.2085,-0.2084,-0.2083]},{"header":{"parameterUnit":"m.s-1","parameterCategory":2,"la1":30.2991,"la2":30.254,"lo1":-89.0895,"lo2":-89.0444,"dy":0.0017,"dx":0.0017,"nx":28,"ny":28,"refTime":"2024-12-14T03:00:00:Z","depth":"0","parameterNumber":3,"parameterNumberName":"V-component_of_CURRENTS"},"data":[0,0,0,0,0,0,0,0,0,0,0,0,0,0,0,0,0,0,0,0,0,0,0,0,0,0,0,0,0,0,0,0,0,0,0,0,0,0,0,0,0,0,0,0,0,0,0,0,0,0,0,0,0,0,0,0,0,0,-0.0103,-0.0102,0,-0.0009,-0.0008,-0.0007,0.004,0.004,0.004,0.0041,0.0143,0.0145,0.0148,0,0,0,0,0,0,0,0,0,0,0,0,0,-0.0177,-0.0177,-0.0103,-0.0102,-0.0101,-0.001,-0.0008,-0.0007,0.004,0.004,0.0041,0.0041,0.0142,0.0145,0.0148,0,0,0,0,0,0,0,0,0,0,0,0,0,-0.0121,-0.0176,-0.0104,-0.0066,-0.0062,-0.001,-0.0008,-0.0007,0.004,0.004,0.0041,0.0041,0.0141,0.0145,0.0149,0.0171,0,0,0.0161,0.0163,0,0,0,0,0,0,0,0,-0.0124,-0.0118,-0.0073,-0.0068,-0.0064,0.0004,0.0003,0.0053,0.004,0.0001,0.0041,0.0041,0.0097,0.0105,0.0122,0.0176,0.018,0.0161,0.0164,0.0165,0.0166,0,0,0,0,0,0,0,-0.0128,-0.0122,-0.0067,-0.0071,-0.0066,-0.0032,-0.0024,0.0013,0.0047,0.0005,0.0008,0.0019,0.01,0.0118,0.0124,0.0182,0.0161,0.0165,0.0167,0.0169,0.0269,0.027,0,0,0,0,0,0,-0.0143,-0.0126,-0.007,-0.0064,-0.0094,-0.0031,-0.0022,-0.0018,0.0047,0.0057,0.0019,0.0021,0.0111,0.012,0.0128,0.016,0.0165,0.0169,0.0171,0.0269,0.0269,0.027,0,0,0,0,0,0,-0.0145,-0.0139,-0.0073,-0.0092,-0.0081,-0.003,-0.0025,-0.0016,0.0002,0.0058,0.0068,0.0028,0.0111,0.0123,0.0163,0.0164,0.0171,0.0174,0.0269,0.0269,0.0269,0.0223,0,0,0,0,0,0,-0.0147,-0.014,-0.0143,-0.0093,-0.0081,-0.0049,-0.0025,-0.0014,0.0009,0.0012,0.0069,0.0078,0.0112,0.0157,0.0167,0.017,0.0178,0.0268,0.0269,0.0269,0.0224,0.0222,0.0219,0,0,0,0,0,-0.015,-0.0159,-0.0144,-0.0137,-0.0086,-0.005,-0.004,-0.0003,0.0009,0.0014,0.0055,0.0077,0.0167,0.016,0.0172,0.0176,0.0268,0.0269,0.0269,0.0225,0.0222,0.022,0,0,0,0,0,0,-0.0195,-0.0154,-0.0136,-0.0132,-0.0095,-0.0042,-0.0034,-0.0007,0.003,0.0032,0.0083,0.0096,0.0131,0.0161,0.0152,0.0207,0.022,0.0223,0.0182,0.018,0.0178,0.0175,0.0181,0,0,0,0,0,-0.0206,-0.0202,-0.0153,-0.015,-0.0134,-0.0085,-0.0066,-0.004,0.0001,0.0017,0.0061,0.0105,0.0144,0.0166,0.0205,0.0236,0.0268,0.0246,0.0244,0.0242,0.0248,0.0294,0.0296,0.0272,0.0272,0.0272,0,0,-0.0222,-0.02,-0.0196,-0.0159,-0.0129,-0.0109,-0.0073,-0.005,-0.0029,0.0023,0.006,0.0099,0.015,0.0186,0.0204,0.0211,0.0264,0.0243,0.024,0.0248,0.0295,0.0297,0.03,0.0272,0.0272,0.0272,0,0,-0.0251,-0.0233,-0.0235,-0.0207,-0.0166,-0.0133,-0.0129,-0.0074,-0.0047,-0.0006,0.0035,0.0077,0.0137,0.0178,0.0204,0.0214,0.0249,0.0221,0.0211,0.0255,0.0257,0.0259,0.0291,0.0297,0.0221,0.0221,0.0221,0,-0.0273,-0.0267,-0.023,-0.0221,-0.0199,-0.0148,-0.0139,-0.0103,-0.0041,-0.0016,-0.0002,0.0096,0.0136,0.0187,0.0191,0.021,0.0235,0.0213,0.0251,0.0254,0.0258,0.029,0.0297,0.0219,0.0219,0.022,0.022,0,-0.0298,-0.0289,-0.0289,-0.0259,-0.0232,-0.0219,-0.0162,-0.0137,-0.0098,-0.0053,0.0007,0.0069,0.0126,0.0144,0.0173,0.0216,0.0226,0.0239,0.0254,0.0257,0.0291,0.0299,0.0216,0.0217,0.0217,0.0218,0,0,-0.0354,-0.0315,-0.0314,-0.0306,-0.0251,-0.0236,-0.0202,-0.0151,-0.0135,-0.0063,-0.0026,0.0051,0.0088,0.0122,0.0165,0.0209,0.025,0.0231,0.0234,0.0255,0.034,0.0384,0.0398,0.0268,0.0269,0.027,0.035,0,-0.0384,-0.0386,-0.0347,-0.034,-0.0334,-0.0276,-0.0249,-0.0197,-0.0147,-0.0101,-0.0017,0.0031,0.0079,0.0099,0.0155,0.023,0.0271,0.0227,0.0341,0.0344,0.0378,0.0409,0.0455,0.0534,0.0358,0.0359,0.036,0,-0.0417,-0.0413,-0.0416,-0.0383,-0.0374,-0.036,-0.0316,-0.0283,-0.0202,-0.0162,-0.0089,-0.0025,0.0064,0.0091,0.0234,0.0202,0.0266,0.0324,0.0328,0.0395,0.0405,0.0506,0.0555,0.0751,0.0373,0.0372,0.0371,0,-0.0483,-0.046,-0.0468,-0.0455,-0.041,-0.04,-0.0373,-0.0306,-0.0285,-0.0202,-0.0181,-0.0059,-0.0007,0.0106,0.024,0.0233,0.0389,0.0392,0.0492,0.0495,0.0572,0.058,0.0822,0.0481,0.048,0.048,0.048,0,-0.0531,-0.0535,-0.0504,-0.051,-0.0521,-0.046,-0.0459,-0.0417,-0.0358,-0.0341,-0.0221,-0.018,-0.0002,0.0112,0.023,0.0399,0.0385,0.0505,0.0529,0.0556,0.0562,0.0765,0.0822,0.0483,0.0483,0.0482,0.0481,0,-0.0598,-0.0575,-0.0588,-0.0559,-0.0554,-0.0563,-0.0531,-0.0533,-0.0462,-0.0438,-0.0416,-0.0266,-0.0103,0.0076,0.0265,0.0381,0.064,0.0588,0.0606,0.0632,0.091,0.096,0.1166,0.1233,0.0719,0.072,0.0722,0,-0.0632,-0.0648,-0.0645,-0.0663,-0.0653,-0.0655,-0.0662,-0.0599,-0.0595,-0.0492,-0.0488,-0.0323,-0.0196,0.0122,0.037,0.0608,0.0714,0.0768,0.0772,0.0956,0.1029,0.1043,0.1084,0.0849,0.0851,0.0853,0.0855,0,-0.0701,-0.0701,-0.0714,-0.0759,-0.0776,-0.0794,-0.0792,-0.0804,-0.0729,-0.0694,-0.0606,-0.049,-0.0142,0.0184,0.0518,0.0657,0.0905,0.0814,0.1013,0.1169,0.1192,0.1257,0.0753,0.0872,0.087,0.0869,0.0868,0.0867,-0.0752,-0.0785,-0.0812,-0.0853,-0.0884,-0.0925,-0.0951,-0.094,-0.0935,-0.0858,-0.0708,-0.0499,0.0034,0.0535,0.0708,0.1137,0.1054,0.1259,0.1306,0.1306,0.1381,0.0912,0.1052,0.1051,0.105,0.105,0.1049,0,-0.0817,-0.0854,-0.0905,-0.0955,-0.1019,-0.1005,-0.1036,-0.1061,-0.1072,-0.0916,-0.0792,-0.0202,0.0314,0.0796,0.1419,0.1639,0.1644,0.174,0.1798,0.1814,0.1431,0.1451,0.1675,0.1675,0.1674,0.1674,0.1674,0.1674,-0.085,-0.0923,-0.0953,-0.1069,-0.1106,-0.1183,-0.1206,-0.1226,-0.1138,-0.0888,-0.0552,-0.0256,0.0514,0.1544,0.2118,0.2144,0.2297,0.2264,0.2332,0.2116,0.2075,0.2036,0.2076,0.2427,0.2428,0.2702,0.2705,0.2707]}],[{"header":{"parameterUnit":"m.s-1","parameterCategory":2,"la1":30.2991,"la2":30.254,"lo1":-89.0895,"lo2":-89.0444,"dy":0.0017,"dx":0.0017,"nx":28,"ny":28,"refTime":"2024-12-14T03:00:00:Z","depth":"2","parameterNumber":2,"parameterNumberName":"U-component_of_CURRENTS"},"data":[0,0,0,0,0,0,0,0,0,0,0,0,0,0,0,0,0,0,0,0,0,0,0,0,0,0,0,0,0,0,0,0,0,0,0,0,0,0,0,0,0,0,0,0,0,0,0,0,0,0,0,0,0,0,0,0,0,0,-0.1525,-0.1525,0,-0.1566,-0.1567,-0.1567,-0.1557,-0.1557,-0.1556,-0.1556,-0.1538,-0.1538,-0.1538,0,0,0,0,0,0,0,0,0,0,0,0,0,-0.1423,-0.1424,-0.1525,-0.1525,-0.1526,-0.1566,-0.1567,-0.1567,-0.1557,-0.1557,-0.1556,-0.1556,-0.1538,-0.1538,-0.1538,0,0,0,0,0,0,0,0,0,0,0,0,0,-0.1462,-0.1425,-0.1524,-0.1529,-0.153,-0.1566,-0.1567,-0.1567,-0.1558,-0.1557,-0.1556,-0.1556,-0.1538,-0.1538,-0.1538,-0.155,0,0,-0.1537,-0.1537,0,0,0,0,0,0,0,0,-0.146,-0.1466,-0.1528,-0.1529,-0.153,-0.1559,-0.1524,-0.156,-0.1558,-0.1543,-0.1556,-0.1555,-0.1542,-0.1542,-0.1547,-0.155,-0.1549,-0.1537,-0.1537,-0.1537,-0.1537,0,0,0,0,0,0,0,-0.1457,-0.1464,-0.1537,-0.1529,-0.153,-0.1525,-0.1529,-0.1531,-0.1542,-0.1544,-0.1545,-0.1556,-0.1542,-0.1547,-0.1546,-0.1549,-0.1537,-0.1537,-0.1537,-0.1537,-0.1553,-0.1553,0,0,0,0,0,0,-0.1462,-0.1462,-0.1536,-0.1539,-0.1497,-0.1528,-0.1532,-0.1548,-0.1543,-0.1544,-0.1556,-0.1555,-0.1547,-0.1546,-0.1545,-0.1577,-0.1537,-0.1537,-0.1537,-0.1552,-0.1553,-0.1553,0,0,0,0,0,0,-0.1459,-0.1468,-0.1534,-0.1504,-0.1512,-0.153,-0.1547,-0.1549,-0.1557,-0.1554,-0.1552,-0.1564,-0.1547,-0.1546,-0.1556,-0.1575,-0.1537,-0.1537,-0.1551,-0.1552,-0.1553,-0.1629,0,0,0,0,0,0,-0.1456,-0.1467,-0.1476,-0.1504,-0.1514,-0.1563,-0.1548,-0.155,-0.1567,-0.1565,-0.1559,-0.1557,-0.1546,-0.1557,-0.1556,-0.1574,-0.1537,-0.1551,-0.1552,-0.1553,-0.1626,-0.1632,-0.1637,0,0,0,0,0,-0.1453,-0.1472,-0.1476,-0.1485,-0.1527,-0.1565,-0.1569,-0.1577,-0.1568,-0.1579,-0.1575,-0.1557,-0.1561,-0.1558,-0.1557,-0.1575,-0.155,-0.1552,-0.1553,-0.1623,-0.1631,-0.1637,0,0,0,0,0,0,-0.1432,-0.1474,-0.1479,-0.1509,-0.1538,-0.1565,-0.1577,-0.1582,-0.1589,-0.1585,-0.1572,-0.157,-0.1581,-0.1567,-0.1563,-0.1579,-0.1549,-0.155,-0.1603,-0.161,-0.1616,-0.1617,-0.1537,0,0,0,0,0,-0.1433,-0.1459,-0.1495,-0.152,-0.1535,-0.1555,-0.157,-0.158,-0.1593,-0.1595,-0.1592,-0.1584,-0.1585,-0.159,-0.1582,-0.1602,-0.1601,-0.1608,-0.1614,-0.1619,-0.1618,-0.1645,-0.1654,-0.1557,-0.1557,-0.1557,0,0,-0.143,-0.146,-0.1472,-0.1518,-0.1536,-0.1569,-0.1561,-0.1592,-0.1612,-0.1592,-0.1609,-0.1603,-0.1592,-0.1609,-0.1613,-0.1603,-0.1648,-0.162,-0.1625,-0.1621,-0.1647,-0.1657,-0.1666,-0.1557,-0.1557,-0.1557,0,0,-0.1453,-0.1466,-0.1499,-0.1526,-0.1567,-0.158,-0.1592,-0.1622,-0.1625,-0.1647,-0.1635,-0.1645,-0.1643,-0.1649,-0.1649,-0.1682,-0.1673,-0.1675,-0.1717,-0.1745,-0.1753,-0.1761,-0.1787,-0.1796,-0.1686,-0.1686,-0.1686,0,-0.1446,-0.1495,-0.1513,-0.1555,-0.1576,-0.1588,-0.1623,-0.1636,-0.1663,-0.1673,-0.1655,-0.1675,-0.1661,-0.1699,-0.1705,-0.1697,-0.1711,-0.1697,-0.1755,-0.1762,-0.1769,-0.1793,-0.1802,-0.169,-0.1689,-0.1689,-0.1688,0,-0.1498,-0.1534,-0.1555,-0.1607,-0.163,-0.1662,-0.1685,-0.1703,-0.1701,-0.1714,-0.1741,-0.1736,-0.1748,-0.1749,-0.1734,-0.178,-0.1775,-0.1757,-0.1743,-0.1784,-0.1806,-0.1814,-0.1695,-0.1694,-0.1693,-0.1692,0,0,-0.149,-0.1574,-0.1581,-0.1611,-0.1658,-0.1684,-0.1715,-0.1752,-0.1789,-0.179,-0.1839,-0.1827,-0.1826,-0.1824,-0.1822,-0.1847,-0.1902,-0.1825,-0.1825,-0.1862,-0.1972,-0.1987,-0.1997,-0.1904,-0.1905,-0.1906,-0.1975,0,-0.1522,-0.1602,-0.1634,-0.1695,-0.1729,-0.1749,-0.1787,-0.1818,-0.1836,-0.1886,-0.188,-0.1912,-0.1856,-0.1878,-0.1892,-0.1903,-0.1925,-0.1885,-0.1916,-0.1917,-0.1935,-0.2007,-0.1794,-0.1839,-0.1983,-0.1984,-0.1985,0,-0.1558,-0.1607,-0.1669,-0.1745,-0.1763,-0.1795,-0.1855,-0.1891,-0.1951,-0.1972,-0.1999,-0.2002,-0.2031,-0.1982,-0.201,-0.1991,-0.1978,-0.1981,-0.1984,-0.1974,-0.1948,-0.1817,-0.1848,-0.1999,-0.1998,-0.1997,-0.1996,0,-0.1537,-0.163,-0.1674,-0.1697,-0.1782,-0.1806,-0.1843,-0.1907,-0.1948,-0.2023,-0.2068,-0.21,-0.2116,-0.2117,-0.2086,-0.206,-0.213,-0.2093,-0.2095,-0.2096,-0.1906,-0.1889,-0.2113,-0.2113,-0.2113,-0.2112,-0.2112,0,-0.1549,-0.1589,-0.1667,-0.169,-0.175,-0.1803,-0.1871,-0.1921,-0.2008,-0.2068,-0.2098,-0.2152,-0.2148,-0.2175,-0.2145,-0.2155,-0.2167,-0.2121,-0.2124,-0.1929,-0.1913,-0.2033,-0.2022,-0.2115,-0.2114,-0.2114,-0.2113,0,-0.1517,-0.1572,-0.1628,-0.1713,-0.1739,-0.1772,-0.1869,-0.1922,-0.2008,-0.2093,-0.2115,-0.2193,-0.2233,-0.2239,-0.2259,-0.2226,-0.2241,-0.2231,-0.2009,-0.1985,-0.2175,-0.2167,-0.2262,-0.2264,-0.2265,-0.2266,-0.2267,0,-0.1511,-0.1534,-0.1619,-0.1642,-0.1674,-0.1737,-0.1784,-0.1895,-0.1951,-0.2105,-0.214,-0.2225,-0.2271,-0.2333,-0.2284,-0.228,-0.2284,-0.2094,-0.2005,-0.2202,-0.2195,-0.2185,-0.2177,-0.1777,-0.1773,-0.1771,-0.1768,0,-0.1482,-0.1505,-0.1536,-0.1588,-0.1631,-0.1699,-0.177,-0.1829,-0.196,-0.2048,-0.2164,-0.2227,-0.2283,-0.2198,-0.2204,-0.2153,-0.2086,-0.2045,-0.2303,-0.1792,-0.1755,-0.1745,-0.1749,-0.1744,-0.1747,-0.1749,-0.175,-0.1751,-0.1434,-0.1442,-0.1473,-0.1516,-0.1571,-0.1634,-0.1654,-0.175,-0.1847,-0.1934,-0.2073,-0.209,-0.2097,-0.2013,-0.1956,-0.1887,-0.2018,-0.1894,-0.1896,-0.1903,-0.1855,-0.1824,-0.1817,-0.1819,-0.1822,-0.1824,-0.1826,0,-0.1356,-0.1376,-0.1404,-0.1446,-0.1461,-0.1532,-0.1619,-0.1605,-0.1669,-0.177,-0.1842,-0.1702,-0.1696,-0.1702,-0.1574,-0.1596,-0.1509,-0.1521,-0.1374,-0.14,-0.1422,-0.1344,-0.1173,-0.1172,-0.117,-0.1169,0,0,-0.1309,-0.1296,-0.1311,-0.131,-0.1342,-0.1329,-0.1353,-0.1356,-0.1386,-0.1382,-0.1389,-0.1553,-0.1632,-0.1382,-0.1349,-0.1239,-0.129,-0.1175,-0.1692,-0.154,-0.1559,-0.1631,-0.1542,0,0,0,0,0]},{"header":{"parameterUnit":"m.s-1","parameterCategory":2,"la1":30.2991,"la2":30.254,"lo1":-89.0895,"lo2":-89.0444,"dy":0.0017,"dx":0.0017,"nx":28,"ny":28,"refTime":"2024-12-14T03:00:00:Z","depth":"2","parameterNumber":3,"parameterNumberName":"V-component_of_CURRENTS"},"data":[0,0,0,0,0,0,0,0,0,0,0,0,0,0,0,0,0,0,0,0,0,0,0,0,0,0,0,0,0,0,0,0,0,0,0,0,0,0,0,0,0,0,0,0,0,0,0,0,0,0,0,0,0,0,0,0,0,0,-0.0108,-0.0107,0,-0.0015,-0.0014,-0.0013,0.0034,0.0034,0.0034,0.0034,0.0136,0.0139,0.0141,0,0,0,0,0,0,0,0,0,0,0,0,0,-0.0182,-0.0181,-0.0108,-0.0107,-0.0106,-0.0015,-0.0014,-0.0013,0.0034,0.0034,0.0034,0.0034,0.0135,0.0138,0.0141,0,0,0,0,0,0,0,0,0,0,0,0,0,-0.0126,-0.0181,-0.0109,-0.0071,-0.0067,-0.0015,-0.0014,-0.0012,0.0034,0.0034,0.0034,0.0034,0.0134,0.0138,0.0142,0.0164,0,0,0.0154,0.0156,0,0,0,0,0,0,0,0,-0.0129,-0.0124,-0.0078,-0.0074,-0.0069,-0.0002,-0.0003,0.0047,0.0034,-0.0005,0.0034,0.0035,0.0091,0.0098,0.0115,0.0169,0.0174,0.0154,0.0157,0.0158,0.016,0,0,0,0,0,0,0,-0.0133,-0.0127,-0.0072,-0.0077,-0.0071,-0.0037,-0.003,0.0007,0.0041,-0.0001,0.0002,0.0013,0.0093,0.0111,0.0118,0.0175,0.0154,0.0158,0.016,0.0162,0.0263,0.0263,0,0,0,0,0,0,-0.0148,-0.0131,-0.0075,-0.0069,-0.0099,-0.0036,-0.0028,-0.0024,0.0041,0.0051,0.0013,0.0015,0.0104,0.0113,0.0122,0.0154,0.0158,0.0162,0.0164,0.0263,0.0263,0.0264,0,0,0,0,0,0,-0.015,-0.0144,-0.0078,-0.0097,-0.0086,-0.0036,-0.0031,-0.0022,-0.0004,0.0052,0.0062,0.0022,0.0105,0.0116,0.0157,0.0158,0.0164,0.0168,0.0262,0.0263,0.0263,0.0218,0,0,0,0,0,0,-0.0152,-0.0145,-0.0148,-0.0098,-0.0086,-0.0054,-0.003,-0.002,0.0003,0.0006,0.0063,0.0072,0.0106,0.0151,0.0161,0.0164,0.0171,0.0262,0.0263,0.0263,0.0219,0.0217,0.0215,0,0,0,0,0,-0.0155,-0.0164,-0.0149,-0.0142,-0.0091,-0.0055,-0.0045,-0.0008,0.0003,0.0008,0.005,0.007,0.0161,0.0154,0.0166,0.017,0.0262,0.0263,0.0263,0.022,0.0217,0.0215,0,0,0,0,0,0,-0.02,-0.0158,-0.0141,-0.0137,-0.01,-0.0047,-0.0039,-0.0013,0.0025,0.0027,0.0078,0.009,0.0126,0.0156,0.0146,0.0202,0.0214,0.0217,0.0177,0.0175,0.0173,0.017,0.0174,0,0,0,0,0,-0.021,-0.0206,-0.0157,-0.0154,-0.0139,-0.0089,-0.007,-0.0045,-0.0004,0.0012,0.0056,0.01,0.0139,0.0161,0.02,0.0231,0.0262,0.0242,0.0239,0.0237,0.0244,0.0289,0.0292,0.0266,0.0266,0.0266,0,0,-0.0226,-0.0203,-0.02,-0.0163,-0.0133,-0.0112,-0.0078,-0.0055,-0.0034,0.0017,0.0056,0.0094,0.0145,0.0181,0.0199,0.0206,0.0259,0.0238,0.0236,0.0244,0.029,0.0293,0.0295,0.0266,0.0266,0.0266,0,0,-0.0255,-0.0236,-0.0238,-0.021,-0.0169,-0.0137,-0.0133,-0.0078,-0.005,-0.0009,0.0032,0.0073,0.0133,0.0174,0.0201,0.0212,0.0245,0.0218,0.0209,0.0252,0.0255,0.0257,0.0287,0.0293,0.0218,0.0218,0.0218,0,-0.0276,-0.027,-0.0233,-0.0224,-0.0202,-0.0151,-0.0141,-0.0106,-0.0043,-0.0018,-0.0005,0.0093,0.0133,0.0185,0.0189,0.0207,0.0232,0.0211,0.0249,0.0252,0.0255,0.0286,0.0293,0.0216,0.0216,0.0217,0.0217,0,-0.03,-0.0291,-0.0291,-0.0261,-0.0233,-0.022,-0.0163,-0.0137,-0.0099,-0.0053,0.0006,0.0068,0.0125,0.0143,0.0172,0.0215,0.0224,0.0237,0.0251,0.0255,0.0287,0.0295,0.0213,0.0214,0.0215,0.0215,0,0,-0.0356,-0.0317,-0.0315,-0.0307,-0.0251,-0.0235,-0.02,-0.0149,-0.0133,-0.0062,-0.0025,0.0053,0.0089,0.0123,0.0165,0.021,0.025,0.023,0.0233,0.0253,0.0338,0.0378,0.0391,0.0267,0.0268,0.0269,0.0346,0,-0.0385,-0.0386,-0.0347,-0.0339,-0.0332,-0.0273,-0.0245,-0.0193,-0.0143,-0.0097,-0.0014,0.0033,0.0081,0.01,0.0156,0.023,0.0271,0.0228,0.0338,0.0341,0.0371,0.0402,0.034,0.0406,0.0354,0.0355,0.0356,0,-0.0418,-0.0413,-0.0414,-0.038,-0.037,-0.0356,-0.031,-0.0277,-0.0197,-0.0156,-0.0085,-0.0022,0.0067,0.0094,0.0234,0.0203,0.0265,0.0322,0.0327,0.039,0.0398,0.0398,0.0423,0.037,0.0369,0.0368,0.0367,0,-0.0483,-0.0459,-0.0465,-0.0452,-0.0405,-0.0395,-0.0367,-0.0299,-0.0278,-0.0196,-0.0175,-0.0055,-0.0004,0.0108,0.0239,0.0232,0.0386,0.0389,0.0485,0.0487,0.0472,0.0471,0.0477,0.0477,0.0477,0.0477,0.0476,0,-0.053,-0.0534,-0.0501,-0.0506,-0.0516,-0.0454,-0.0452,-0.041,-0.0351,-0.0333,-0.0215,-0.0174,0.0,0.0112,0.0229,0.0394,0.0381,0.0497,0.052,0.0454,0.0451,0.045,0.0446,0.048,0.0479,0.0478,0.0478,0,-0.0598,-0.0573,-0.0584,-0.0554,-0.0549,-0.0556,-0.0522,-0.0524,-0.0454,-0.0431,-0.0408,-0.026,-0.0101,0.0075,0.026,0.0374,0.0525,0.0576,0.0486,0.0499,0.0595,0.0587,0.0696,0.0699,0.07,0.0702,0.0703,0,-0.0631,-0.0647,-0.0641,-0.0657,-0.0646,-0.0647,-0.0653,-0.059,-0.0586,-0.0484,-0.0479,-0.0318,-0.0195,0.0115,0.0338,0.0565,0.0565,0.0635,0.0626,0.0612,0.0622,0.0612,0.0602,0.0575,0.0576,0.0576,0.0576,0,-0.0699,-0.0699,-0.071,-0.0752,-0.0768,-0.0784,-0.0781,-0.0792,-0.0717,-0.0682,-0.0597,-0.0484,-0.0165,0.0093,0.0409,0.0531,0.0604,0.0648,0.0661,0.0537,0.0507,0.0514,0.0506,0.0577,0.0577,0.0577,0.0577,0.0577,-0.075,-0.0781,-0.0806,-0.0845,-0.0874,-0.0914,-0.0938,-0.0923,-0.0916,-0.084,-0.0702,-0.0517,-0.0222,0.0218,0.0444,0.0649,0.0656,0.0695,0.069,0.0686,0.0667,0.0643,0.0734,0.0734,0.0735,0.0735,0.0736,0,-0.0811,-0.0849,-0.0898,-0.0945,-0.1003,-0.0993,-0.1023,-0.1031,-0.1035,-0.0911,-0.0796,-0.0491,-0.0155,0.015,0.0478,0.0694,0.0661,0.0716,0.0627,0.0625,0.0622,0.0596,0.0647,0.0647,0.0647,0.0648,0,0,-0.0843,-0.0912,-0.0941,-0.1051,-0.1089,-0.1156,-0.1178,-0.1172,-0.1098,-0.0996,-0.0841,-0.0565,-0.0173,0.0044,0.0314,0.0483,0.0488,0.0489,0.0534,0.0392,0.0387,0.0584,0.0539,0,0,0,0,0]}],[{"header":{"parameterUnit":"m.s-1","parameterCategory":2,"la1":30.2991,"la2":30.254,"lo1":-89.0895,"lo2":-89.0444,"dy":0.0017,"dx":0.0017,"nx":28,"ny":28,"refTime":"2024-12-14T03:00:00:Z","depth":"4","parameterNumber":2,"parameterNumberName":"U-component_of_CURRENTS"},"data":[0,0,0,0,0,0,0,0,0,0,0,0,0,0,0,0,0,0,0,0,0,0,0,0,0,0,0,0,0,0,0,0,0,0,0,0,0,0,0,0,0,0,0,0,0,0,0,0,0,0,0,0,0,0,0,0,0,0,-0.0876,-0.0876,0,-0.0874,-0.0874,-0.0874,-0.0914,-0.0915,-0.0916,-0.0918,-0.091,-0.0908,-0.0907,0,0,0,0,0,0,0,0,0,0,0,0,0,-0.0791,-0.0793,-0.0876,-0.0876,-0.0876,-0.0874,-0.0874,-0.0874,-0.0914,-0.0915,-0.0917,-0.0918,-0.091,-0.0909,-0.0907,0,0,0,0,0,0,0,0,0,0,0,0,0,-0.0812,-0.0794,-0.0876,-0.0896,-0.0898,-0.0874,-0.0874,-0.0874,-0.0914,-0.0915,-0.0917,-0.0919,-0.0911,-0.0909,-0.0907,-0.086,0,0,-0.0901,-0.09,0,0,0,0,0,0,0,0,-0.0811,-0.0815,-0.0893,-0.0895,-0.0897,-0.0897,-0.0841,-0.0869,-0.0913,-0.0907,-0.0918,-0.092,-0.0904,-0.0903,-0.0897,-0.086,-0.0859,-0.0901,-0.09,-0.0899,-0.0898,0,0,0,0,0,0,0,-0.081,-0.0815,-0.0874,-0.0893,-0.0895,-0.0863,-0.0869,-0.0846,-0.0895,-0.0908,-0.0911,-0.0911,-0.0905,-0.0899,-0.0898,-0.0859,-0.0901,-0.0899,-0.0898,-0.0897,-0.0857,-0.0858,0,0,0,0,0,0,-0.0816,-0.0814,-0.0874,-0.0874,-0.0858,-0.0864,-0.0871,-0.0894,-0.0895,-0.0898,-0.091,-0.0913,-0.0902,-0.09,-0.0897,-0.087,-0.0899,-0.0897,-0.0896,-0.0857,-0.0857,-0.0858,0,0,0,0,0,0,-0.0815,-0.0823,-0.0874,-0.0843,-0.0848,-0.0865,-0.089,-0.0893,-0.0911,-0.0897,-0.09,-0.0927,-0.0903,-0.09,-0.0891,-0.087,-0.0896,-0.0894,-0.0857,-0.0857,-0.0857,-0.0798,0,0,0,0,0,0,-0.0813,-0.0823,-0.0844,-0.0844,-0.085,-0.0878,-0.0889,-0.0892,-0.0907,-0.0912,-0.0912,-0.0912,-0.0904,-0.0894,-0.0889,-0.0867,-0.0893,-0.0857,-0.0857,-0.0857,-0.08,-0.0796,-0.0793,0,0,0,0,0,-0.081,-0.0826,-0.0846,-0.0853,-0.0879,-0.0878,-0.0878,-0.0894,-0.0907,-0.0915,-0.0911,-0.0913,-0.0892,-0.0891,-0.0886,-0.0863,-0.0857,-0.0857,-0.0857,-0.0801,-0.0797,-0.0793,0,0,0,0,0,0,-0.08,-0.0832,-0.0853,-0.0881,-0.089,-0.0886,-0.0887,-0.09,-0.0902,-0.0911,-0.0902,-0.0901,-0.0898,-0.089,-0.089,-0.0859,-0.0879,-0.0878,-0.0839,-0.0834,-0.0831,-0.0933,-0.0891,0,0,0,0,0,-0.0809,-0.0834,-0.0853,-0.0875,-0.0878,-0.0886,-0.0889,-0.0905,-0.0904,-0.0909,-0.0906,-0.0901,-0.0888,-0.0871,-0.0875,-0.0834,-0.09,-0.0823,-0.082,-0.0816,-0.0899,-0.0941,-0.095,-0.0858,-0.0858,-0.0858,0,0,-0.0812,-0.083,-0.0847,-0.0875,-0.0878,-0.0874,-0.0893,-0.0903,-0.0918,-0.0903,-0.0914,-0.0901,-0.0884,-0.0858,-0.0852,-0.0844,-0.0872,-0.0817,-0.0813,-0.0901,-0.0943,-0.0952,-0.096,-0.0858,-0.0858,-0.0858,0,0,-0.081,-0.0845,-0.0859,-0.0867,-0.0883,-0.0877,-0.0886,-0.0895,-0.0924,-0.0929,-0.092,-0.0906,-0.0884,-0.0861,-0.0845,-0.0827,-0.0871,-0.0809,-0.0844,-0.0879,-0.0888,-0.0897,-0.0969,-0.0984,-0.0781,-0.0781,-0.0781,0,-0.0812,-0.0839,-0.0859,-0.0865,-0.0876,-0.0879,-0.0889,-0.0899,-0.0911,-0.0943,-0.0943,-0.0935,-0.0899,-0.0869,-0.0862,-0.0821,-0.0873,-0.0844,-0.0876,-0.0886,-0.0896,-0.0968,-0.0987,-0.0778,-0.0778,-0.0779,-0.0779,0,-0.0808,-0.0837,-0.0837,-0.0851,-0.0864,-0.0869,-0.0889,-0.0909,-0.0935,-0.0958,-0.0989,-0.0949,-0.0953,-0.0903,-0.0878,-0.0901,-0.0926,-0.088,-0.0886,-0.0902,-0.0976,-0.0996,-0.0774,-0.0775,-0.0776,-0.0777,0,0,-0.0792,-0.083,-0.0833,-0.0862,-0.0867,-0.0882,-0.0901,-0.0937,-0.0991,-0.0992,-0.1059,-0.1005,-0.1015,-0.1005,-0.0943,-0.0961,-0.103,-0.0957,-0.0959,-0.1033,-0.1156,-0.1048,-0.106,-0.098,-0.0984,-0.0987,-0.1171,0,-0.0784,-0.0806,-0.083,-0.0855,-0.0868,-0.0899,-0.0931,-0.0973,-0.1021,-0.1078,-0.1064,-0.1101,-0.1035,-0.1037,-0.1039,-0.1047,-0.1087,-0.0989,-0.1133,-0.114,-0.1043,-0.1081,-0.0998,-0.1186,-0.1191,-0.1194,-0.1197,0,-0.0771,-0.0792,-0.0826,-0.0902,-0.0915,-0.0932,-0.1019,-0.1058,-0.1128,-0.1175,-0.12,-0.1218,-0.1227,-0.1182,-0.1242,-0.1184,-0.1208,-0.1216,-0.122,-0.1181,-0.1071,-0.1175,-0.1234,-0.1231,-0.1228,-0.1226,-0.1224,0,-0.0752,-0.0799,-0.0837,-0.0853,-0.0918,-0.0968,-0.1005,-0.1091,-0.1168,-0.1249,-0.1319,-0.1332,-0.1365,-0.1389,-0.1389,-0.134,-0.1492,-0.1399,-0.1342,-0.1336,-0.1405,-0.1394,-0.151,-0.151,-0.151,-0.1509,-0.1509,0,-0.0729,-0.0764,-0.084,-0.0855,-0.0942,-0.099,-0.1104,-0.1151,-0.125,-0.1335,-0.137,-0.1431,-0.1434,-0.1494,-0.1475,-0.1477,-0.1551,-0.1417,-0.1386,-0.1369,-0.1353,-0.1418,-0.1405,-0.1516,-0.1514,-0.1513,-0.1512,0,-0.0706,-0.0742,-0.0809,-0.0897,-0.0936,-0.1008,-0.1151,-0.1226,-0.1323,-0.1436,-0.147,-0.155,-0.1607,-0.162,-0.1673,-0.1588,-0.1595,-0.1585,-0.1632,-0.159,-0.1408,-0.139,-0.1558,-0.1556,-0.1555,-0.1553,-0.1552,0,-0.0691,-0.0716,-0.0843,-0.0898,-0.0944,-0.1057,-0.1129,-0.124,-0.131,-0.1487,-0.1517,-0.1645,-0.1672,-0.1679,-0.1674,-0.1667,-0.1621,-0.1644,-0.1489,-0.1467,-0.1419,-0.1403,-0.1388,-0.1549,-0.1549,-0.1548,-0.1548,0,-0.0666,-0.0727,-0.0788,-0.0893,-0.0981,-0.1084,-0.1182,-0.1236,-0.136,-0.1478,-0.1539,-0.1573,-0.1643,-0.1625,-0.1646,-0.1617,-0.1625,-0.1625,-0.1626,-0.1481,-0.1457,-0.1408,-0.1395,-0.1542,-0.1543,-0.1543,-0.1543,0,-0.0659,-0.0714,-0.0792,-0.0889,-0.0991,-0.1051,-0.1128,-0.1196,-0.1281,-0.1443,-0.1463,-0.1557,-0.1639,-0.1606,-0.161,-0.1584,-0.1532,-0.146,-0.1469,-0.1476,-0.1349,-0.13,-0.1361,0,0,0,0,0,-0.0636,-0.0681,-0.0769,-0.0859,-0.0951,-0.0992,-0.1126,-0.1194,-0.1324,-0.1335,-0.1391,-0.1436,-0.1453,-0.1495,-0.1443,-0.1556,-0.1532,-0.1489,-0.1452,-0.1508,-0.1515,-0.1363,0,0,0,0,0,0,-0.0615,-0.0688,-0.0745,-0.0796,-0.0833,-0.0913,-0.0987,-0.1078,-0.1088,-0.1223,-0.1234,-0.1334,-0.1361,-0.1446,-0.1403,-0.1415,-0.1362,-0.1544,-0.1541,-0.1504,-0.1511,-0.1516,-0.1363,0,0,0,0,0]},{"header":{"parameterUnit":"m.s-1","parameterCategory":2,"la1":30.2991,"la2":30.254,"lo1":-89.0895,"lo2":-89.0444,"dy":0.0017,"dx":0.0017,"nx":28,"ny":28,"refTime":"2024-12-14T03:00:00:Z","depth":"4","parameterNumber":3,"parameterNumberName":"V-component_of_CURRENTS"},"data":[0,0,0,0,0,0,0,0,0,0,0,0,0,0,0,0,0,0,0,0,0,0,0,0,0,0,0,0,0,0,0,0,0,0,0,0,0,0,0,0,0,0,0,0,0,0,0,0,0,0,0,0,0,0,0,0,0,0,-0.0089,-0.0088,0,-0.0018,-0.0017,-0.0016,0.002,0.002,0.002,0.002,0.0101,0.0103,0.0105,0,0,0,0,0,0,0,0,0,0,0,0,0,-0.0145,-0.0144,-0.0089,-0.0088,-0.0088,-0.0018,-0.0017,-0.0016,0.002,0.002,0.002,0.002,0.01,0.0103,0.0106,0,0,0,0,0,0,0,0,0,0,0,0,0,-0.0102,-0.0144,-0.0089,-0.0061,-0.0058,-0.0018,-0.0017,-0.0016,0.002,0.002,0.002,0.002,0.01,0.0103,0.0106,0.0126,0,0,0.0116,0.0117,0,0,0,0,0,0,0,0,-0.0104,-0.01,-0.0066,-0.0063,-0.006,-0.0008,-0.0007,0.0032,0.002,-0.001,0.002,0.002,0.0065,0.0071,0.0085,0.0129,0.0133,0.0116,0.0118,0.0119,0.012,0,0,0,0,0,0,0,-0.0107,-0.0102,-0.0061,-0.0065,-0.0061,-0.0035,-0.003,0.0001,0.0027,-0.0007,-0.0005,0.0003,0.0067,0.0082,0.0087,0.0134,0.0116,0.0119,0.0121,0.0122,0.0221,0.0222,0,0,0,0,0,0,-0.0119,-0.0106,-0.0063,-0.0059,-0.0083,-0.0035,-0.0028,-0.0025,0.0027,0.0034,0.0003,0.0005,0.0076,0.0083,0.009,0.0137,0.0119,0.0123,0.0124,0.0221,0.0222,0.0222,0,0,0,0,0,0,-0.0121,-0.0116,-0.0066,-0.008,-0.0072,-0.0034,-0.003,-0.0023,-0.0009,0.0034,0.0042,0.0011,0.0076,0.0086,0.0124,0.0139,0.0124,0.0127,0.022,0.0221,0.0222,0.0217,0,0,0,0,0,0,-0.0123,-0.0117,-0.0119,-0.0081,-0.0072,-0.0046,-0.003,-0.0022,-0.0004,-0.0001,0.0044,0.0051,0.0077,0.0119,0.0127,0.0144,0.0129,0.0219,0.022,0.0222,0.0216,0.0218,0.0219,0,0,0,0,0,-0.0125,-0.013,-0.012,-0.0114,-0.0076,-0.0046,-0.0038,-0.0011,-0.0004,0.0002,0.0038,0.005,0.0133,0.0122,0.0131,0.0149,0.0218,0.022,0.0222,0.0216,0.0218,0.0219,0,0,0,0,0,0,-0.0155,-0.0126,-0.0114,-0.011,-0.0081,-0.004,-0.0032,-0.0013,0.0019,0.0021,0.006,0.0071,0.0108,0.0129,0.0116,0.0182,0.0177,0.0181,0.017,0.0172,0.0173,0.0156,0.0132,0,0,0,0,0,-0.0163,-0.016,-0.0123,-0.012,-0.0108,-0.007,-0.0055,-0.0036,-0.0002,0.0011,0.0046,0.0084,0.0122,0.0146,0.0177,0.0215,0.0224,0.0232,0.0233,0.0234,0.0227,0.0252,0.0254,0.0227,0.0227,0.0227,0,0,-0.0174,-0.0157,-0.0155,-0.0126,-0.0102,-0.008,-0.0062,-0.0042,-0.0019,0.0016,0.0054,0.0086,0.0131,0.0174,0.0193,0.0195,0.0249,0.0236,0.0237,0.0229,0.0253,0.0256,0.0258,0.0229,0.0228,0.0228,0,0,-0.0192,-0.0179,-0.0179,-0.0154,-0.0121,-0.0095,-0.0091,-0.0048,-0.0026,0.0014,0.0047,0.0089,0.0143,0.0185,0.0213,0.024,0.025,0.0249,0.025,0.0274,0.0276,0.0278,0.03,0.0304,0.0256,0.0256,0.0256,0,-0.0207,-0.0196,-0.0174,-0.016,-0.0138,-0.0102,-0.0088,-0.0057,-0.0006,0.0012,0.0022,0.0108,0.0151,0.0208,0.0225,0.0244,0.0252,0.024,0.0275,0.0277,0.0279,0.03,0.0305,0.0256,0.0256,0.0256,0.0256,0,-0.0215,-0.0203,-0.02,-0.0169,-0.0145,-0.0128,-0.0081,-0.0058,-0.0029,0.0004,0.0054,0.0114,0.0161,0.0191,0.0222,0.0264,0.0263,0.0267,0.0267,0.0281,0.0303,0.0308,0.0256,0.0256,0.0256,0.0256,0,0,-0.0255,-0.0215,-0.0213,-0.02,-0.0147,-0.0132,-0.0095,-0.0053,-0.0044,0.0018,0.004,0.013,0.0149,0.018,0.0225,0.0261,0.0298,0.027,0.0272,0.0284,0.0344,0.0333,0.0337,0.0302,0.0303,0.0303,0.0356,0,-0.0266,-0.0252,-0.0222,-0.02,-0.0185,-0.0139,-0.0113,-0.0072,-0.0037,-0.0009,0.0063,0.0097,0.0149,0.0165,0.0214,0.0271,0.0308,0.0283,0.0335,0.0336,0.0318,0.0341,0.0305,0.036,0.0361,0.0362,0.0362,0,-0.0281,-0.0267,-0.0255,-0.022,-0.0211,-0.0196,-0.0162,-0.0133,-0.008,-0.0055,-0.0004,0.0037,0.0116,0.0142,0.0252,0.0229,0.0284,0.0331,0.0334,0.0324,0.0332,0.0343,0.037,0.037,0.0369,0.0368,0.0368,0,-0.0325,-0.029,-0.0286,-0.0269,-0.0226,-0.022,-0.0198,-0.0155,-0.0146,-0.0094,-0.0091,0.0002,0.0039,0.0124,0.0238,0.0236,0.0345,0.0352,0.0396,0.0396,0.0391,0.0389,0.0417,0.0417,0.0417,0.0417,0.0417,0,-0.0344,-0.0341,-0.0313,-0.031,-0.0319,-0.0268,-0.028,-0.0248,-0.0216,-0.0216,-0.0128,-0.0104,0.0033,0.0116,0.0216,0.0324,0.033,0.0396,0.0409,0.039,0.0386,0.0395,0.0391,0.0419,0.0419,0.0418,0.0418,0,-0.039,-0.0368,-0.037,-0.0343,-0.0343,-0.0353,-0.0345,-0.0356,-0.0312,-0.0311,-0.0299,-0.0185,-0.0072,0.0065,0.021,0.0286,0.0394,0.0429,0.04,0.041,0.0433,0.0429,0.0472,0.0472,0.0472,0.0472,0.0472,0,-0.0409,-0.0415,-0.0419,-0.0438,-0.0432,-0.0442,-0.0459,-0.0416,-0.0422,-0.0359,-0.0359,-0.025,-0.0165,0.0034,0.0189,0.0371,0.0399,0.0448,0.0445,0.043,0.0439,0.0434,0.043,0.0472,0.0472,0.0472,0.0472,0,-0.0447,-0.046,-0.047,-0.0515,-0.054,-0.0563,-0.0572,-0.058,-0.053,-0.0498,-0.042,-0.0298,-0.0166,0.0017,0.0163,0.0297,0.0413,0.0449,0.045,0.0447,0.0431,0.0438,0.0434,0.0472,0.0472,0.0472,0.0472,0,-0.0487,-0.0517,-0.0546,-0.0583,-0.0628,-0.066,-0.0653,-0.0635,-0.0621,-0.0536,-0.0509,-0.0342,-0.0232,-0.0021,0.0117,0.0246,0.0275,0.0306,0.0315,0.0317,0.0262,0.0219,0.0205,0,0,0,0,0,-0.0516,-0.0557,-0.0606,-0.0645,-0.0695,-0.0714,-0.072,-0.0699,-0.0651,-0.0617,-0.056,-0.0432,-0.0207,-0.0087,0.0035,0.0114,0.0294,0.0261,0.0333,0.0473,0.0473,0.0435,0,0,0,0,0,0,-0.0535,-0.0592,-0.0618,-0.0694,-0.0732,-0.0778,-0.0782,-0.0746,-0.0704,-0.0639,-0.0513,-0.0426,-0.0199,-0.0294,0.0025,0.0071,0.0129,0.038,0.0382,0.0473,0.0473,0.0473,0.0434,0,0,0,0,0]}]]